FW7128 Weather Reports


Display with metric or nautical units.
time (UTC)temp
F
wind
direction
speed
MPH
gust
MPH
rain 1hr
in
rain 24hr
in
rain mn
in
humidity
%
barometer
mb
20260509224021 85 114 12.0 22.0 0.00 0.00 0.00 50 1006.8
20260509223517 86 111 6.0 17.0 0.00 0.00 0.00 50 1006.8
20260509223016 85 107 9.0 16.0 0.00 0.00 0.00 50 1006.8
20260509222511 85 87 8.0 17.0 0.00 0.00 0.00 50 1007.0
20260509222007 85 127 3.0 16.0 0.00 0.00 0.00 50 1007.1
20260509221503 84 147 4.0 21.0 0.00 0.00 0.00 50 1007.0
20260509220959 85 116 10.0 19.0 0.00 0.00 0.00 49 1007.2
20260509220455 85 80 20.0 26.0 0.00 0.00 0.00 48 1007.3
20260509215951 85 86 6.0 13.0 0.00 0.00 0.00 49 1007.2
20260509215447 85 151 10.0 21.0 0.00 0.00 0.00 49 1007.6
20260509214945 85 113 9.0 14.0 0.00 0.00 0.00 49 1007.6
20260509214442 85 103 7.0 16.0 0.00 0.00 0.00 49 1007.5
20260509213938 85 69 9.0 15.0 0.00 0.00 0.00 48 1007.6
20260509213434 85 158 5.0 14.0 0.00 0.00 0.00 49 1007.8
20260509212931 84 135 12.0 17.0 0.00 0.00 0.00 49 1008.0
20260509212429 84 91 16.0 21.0 0.00 0.00 0.00 49 1007.9
20260509211925 84 88 12.0 14.0 0.00 0.00 0.00 48 1008.2
20260509211420 84 88 5.0 11.0 0.00 0.00 0.00 48 1007.9
20260509210917 85 105 13.0 14.0 0.00 0.00 0.00 48 1008.2
20260509210414 84 91 7.0 16.0 0.00 0.00 0.00 48 1008.1
20260509205909 85 160 4.0 11.0 0.00 0.00 0.00 48 1008.1
20260509205404 84 135 7.0 11.0 0.00 0.00 0.00 48 1008.0
20260509204900 85 125 6.0 12.0 0.00 0.00 0.00 46 1008.3
20260509204357 85 175 13.0 14.0 0.00 0.00 0.00 48 1008.5
20260509203853 83 192 3.0 7.0 0.00 0.00 0.00 49 1008.4
20260509203349 84 63 7.0 12.0 0.00 0.00 0.00 50 1008.4
20260509202847 84 60 5.0 10.0 0.00 0.00 0.00 50 1008.6
20260509202342 84 115 15.0 23.0 0.00 0.00 0.00 51 1008.6
20260509201838 84 104 19.0 19.0 0.00 0.00 0.00 52 1008.6
20260509201334 83 230 0.0 18.0 0.00 0.00 0.00 52 1008.8
20260509200830 84 111 7.0 13.0 0.00 0.00 0.00 51 1008.9
20260509200326 84 78 8.0 18.0 0.00 0.00 0.00 52 1008.9
20260509195822 83 69 5.0 10.0 0.00 0.00 0.00 49 1008.9
20260509195317 82 99 5.0 8.0 0.00 0.00 0.00 51 1009.2
20260509194817 83 92 7.0 13.0 0.00 0.00 0.00 50 1009.3
20260509194313 81 224 0.0 10.0 0.00 0.00 0.00 49 1009.4
20260509193810 83 98 3.0 18.0 0.00 0.00 0.00 47 1009.4
20260509193309 84 84 9.0 11.0 0.00 0.00 0.00 49 1009.4
20260509192806 82 95 6.0 13.0 0.00 0.00 0.00 48 1009.5
20260509192305 81 77 5.0 14.0 0.00 0.00 0.00 51 1009.5
20260509191757 83 66 7.0 18.0 0.00 0.00 0.00 49 1009.5
20260509191254 82 294 0.0 10.0 0.00 0.00 0.00 50 1009.4
20260509190749 82 216 0.0 12.0 0.00 0.00 0.00 51 1009.4
20260509190247 83 74 9.0 11.0 0.00 0.00 0.00 51 1009.5
20260509185744 82 342 0.0 6.0 0.00 0.00 0.00 52 1009.7
20260509185240 81 91 4.0 10.0 0.00 0.00 0.00 46 1009.5
20260509184738 82 104 15.0 16.0 0.00 0.00 0.00 46 1009.6
20260509184235 82 72 7.0 9.0 0.00 0.00 0.00 47 1009.6
20260509183731 83 125 6.0 12.0 0.00 0.00 0.00 47 1009.5
20260509183226 82 176 0.0 3.0 0.00 0.00 0.00 51 1009.6
20260509182722 81 44 0.0 8.0 0.00 0.00 0.00 49 1009.8
20260509182220 83 97 4.0 10.0 0.00 0.00 0.00 48 1009.6
20260509181717 83 237 0.0 5.0 0.00 0.00 0.00 50 1009.8
20260509181215 81 132 0.0 4.0 0.00 0.00 0.00 51 1009.9
20260509180712 81 135 3.0 12.0 0.00 0.00 0.00 49 1010.0
20260509180208 80 28 0.0 8.0 0.00 0.00 0.00 49 1010.5
20260509175704 81 72 9.0 13.0 0.00 0.00 0.00 51 1010.4
20260509175201 82 140 4.0 10.0 0.00 0.00 0.00 48 1010.5
20260509174656 80 94 0.0 7.0 0.00 0.00 0.00 50 1010.4
20260509174151 81 2 3.0 6.0 0.00 0.00 0.00 50 1010.8
20260509173648 81 353 0.0 10.0 0.00 0.00 0.00 52 1010.8
20260509173143 79 258 5.0 5.0 0.00 0.00 0.00 49 1010.8
20260509172640 80 93 2.0 7.0 0.00 0.00 0.00 50 1010.9
20260509172136 82 258 0.0 9.0 0.00 0.00 0.00 48 1010.9
20260509171632 81 202 3.0 3.0 0.00 0.00 0.00 46 1010.9
20260509171128 80 101 0.0 6.0 0.00 0.00 0.00 49 1010.8
20260509170625 83 3 4.0 13.0 0.00 0.00 0.00 49 1011.2
20260509170121 81 245 0.0 2.0 0.00 0.00 0.00 49 1011.2
20260509165619 82 76 5.0 9.0 0.00 0.00 0.00 47 1011.0
20260509165115 80 163 2.0 3.0 0.00 0.00 0.00 48 1011.2
20260509164611 79 51 0.0 3.0 0.00 0.00 0.00 48 1011.5
20260509164107 82 116 6.0 7.0 0.00 0.00 0.00 48 1011.5
20260509163606 82 261 0.0 3.0 0.00 0.00 0.00 50 1011.4
20260509163101 81 247 0.0 3.0 0.00 0.00 0.00 48 1011.6
20260509162558 79 230 0.0 3.0 0.00 0.00 0.00 51 1011.4
20260509162054 78 216 0.0 5.0 0.00 0.00 0.00 51 1011.5
20260509161550 79 133 3.0 3.0 0.00 0.00 0.00 53 1011.4
20260509161045 78 124 2.0 3.0 0.00 0.00 0.00 56 1011.4
20260509160541 78 136 0.0 5.0 0.00 0.00 0.00 56 1011.3
20260509160037 75 32 0.0 4.0 0.00 0.00 0.00 58 1011.5
20260509155533 77 173 3.0 7.0 0.00 0.00 0.00 59 1011.4
20260509155029 76 124 2.0 8.0 0.00 0.00 0.00 60 1011.8
20260509154526 75 158 0.0 4.0 0.00 0.00 0.00 63 1011.7
20260509154023 74 222 0.0 3.0 0.00 0.00 0.00 61 1011.8
20260509153520 75 36 0.0 7.0 0.00 0.00 0.00 64 1011.8
20260509153017 75 203 5.0 5.0 0.00 0.00 0.00 62 1011.9
20260509152513 74 176 2.0 4.0 0.00 0.00 0.00 65 1011.7
20260509152009 74 165 3.0 5.0 0.00 0.00 0.00 64 1011.6
20260509151506 75 229 5.0 5.0 0.00 0.00 0.00 63 1011.5
20260509151005 73 204 2.0 3.0 0.00 0.00 0.00 65 1011.6
20260509150501 73 68 5.0 5.0 0.00 0.00 0.00 66 1011.7
20260509145959 72 126 2.0 4.0 0.00 0.00 0.00 67 1011.8
20260509145455 72 108 7.0 7.0 0.00 0.00 0.00 68 1011.9
20260509144950 72 62 0.0 5.0 0.00 0.00 0.00 69 1011.7
20260509144447 71 148 0.0 5.0 0.00 0.00 0.00 68 1011.9
20260509143944 73 137 4.0 4.0 0.00 0.00 0.00 67 1011.8
20260509143441 69 129 0.0 0.0 0.00 0.00 0.00 68 1011.6
20260509142938 70 243 0.0 3.0 0.00 0.00 0.00 73 1011.8
20260509142434 69 55 3.0 4.0 0.00 0.00 0.00 73 1011.9
20260509141930 69 92 3.0 5.0 0.00 0.00 0.00 74 1012.0
20260509141427 69 132 5.0 5.0 0.00 0.00 0.00 73 1011.9
20260509140924 68 68 3.0 7.0 0.00 0.00 0.00 74 1012.0
20260509140420 67 137 3.0 5.0 0.00 0.00 0.00 79 1011.8
20260509135918 67 164 0.0 5.0 0.00 0.00 0.00 80 1012.0
20260509135416 66 151 0.0 7.0 0.00 0.00 0.00 80 1012.0
20260509134913 67 121 5.0 6.0 0.00 0.00 0.00 79 1012.1
20260509134410 66 117 0.0 5.0 0.00 0.00 0.00 82 1011.9
20260509133907 65 134 0.0 6.0 0.00 0.00 0.00 83 1011.7
20260509133404 67 96 5.0 5.0 0.00 0.00 0.00 80 1011.9
20260509132902 65 135 0.0 5.0 0.00 0.00 0.00 84 1011.8
20260509132400 64 114 3.0 5.0 0.00 0.00 0.00 88 1012.0
20260509131857 64 195 3.0 5.0 0.00 0.00 0.00 88 1011.9
20260509131354 63 128 3.0 4.0 0.00 0.00 0.00 89 1011.8
20260509130850 62 168 0.0 6.0 0.00 0.00 0.00 91 1011.8
20260509130346 62 101 3.0 5.0 0.00 0.00 0.00 94 1011.9
20260509125843 61 168 4.0 6.0 0.00 0.00 0.00 95 1011.7
20260509125339 61 127 0.0 7.0 0.00 0.00 0.00 96 1011.8
20260509124836 61 181 2.0 7.0 0.00 0.00 0.00 97 1011.9
20260509124333 60 107 6.0 6.0 0.00 0.00 0.00 99 1011.8
20260509123831 60 160 6.0 6.0 0.00 0.00 0.00 99 1011.6
20260509123328 60 140 3.0 6.0 0.00 0.00 0.00 99 1011.6
20260509122823 59 123 0.0 4.0 0.00 0.00 0.00 99 1011.5
20260509122320 59 209 2.0 3.0 0.00 0.00 0.00 99 1011.5
20260509121817 59 180 0.0 4.0 0.00 0.00 0.00 99 1011.4
20260509121314 59 138 0.0 5.0 0.00 0.00 0.00 99 1011.7
20260509120813 59 147 0.0 0.0 0.00 0.00 0.00 99 1011.4
20260509120310 59 180 0.0 6.0 0.00 0.00 0.00 99 1011.5
20260509115808 59 201 4.0 7.0 0.00 0.00 0.00 99 1011.6
20260509115307 59 166 2.0 4.0 0.00 0.00 0.00 99 1011.1
20260509114803 59 180 0.0 2.0 0.00 0.00 0.00 99 1011.1
20260509114301 59 195 6.0 9.0 0.00 0.00 0.00 99 1011.3
20260509113800 59 191 2.0 8.0 0.00 0.00 0.00 99 1011.0
20260509113256 59 150 0.0 9.0 0.00 0.00 0.00 99 1011.3
20260509112753 59 165 4.0 10.0 0.00 0.00 0.00 99 1011.0
20260509112250 59 179 3.0 10.0 0.00 0.00 0.00 99 1010.9
20260509111747 59 190 3.0 5.0 0.00 0.00 0.00 99 1011.0
20260509111244 59 148 0.0 3.0 0.00 0.00 0.00 99 1010.1
20260509110741 59 150 0.0 5.0 0.00 0.00 0.00 99 1010.0
20260509110238 59 89 0.0 2.0 0.00 0.00 0.00 99 1010.1
20260509105736 59 113 0.0 5.0 0.00 0.00 0.00 99 1010.1
20260509105233 59 102 0.0 2.0 0.00 0.00 0.00 99 1010.1
20260509104730 59 114 4.0 7.0 0.00 0.00 0.00 99 1010.2
20260509104227 59 93 2.0 3.0 0.00 0.00 0.00 99 1009.9
20260509103725 59 131 0.0 6.0 0.00 0.00 0.00 99 1010.1
20260509103222 59 143 0.0 3.0 0.00 0.00 0.00 99 1010.0
20260509102720 59 151 0.0 2.0 0.00 0.00 0.00 99 1010.1
20260509102217 59 118 0.0 3.0 0.00 0.00 0.00 99 1010.0
20260509101713 59 74 4.0 6.0 0.00 0.00 0.00 99 1010.0
20260509101210 59 78 0.0 5.0 0.00 0.00 0.00 99 1009.9
20260509100708 59 110 4.0 5.0 0.00 0.00 0.00 99 1009.9
20260509100204 59 63 4.0 5.0 0.00 0.00 0.00 99 1009.7
20260509095701 59 131 0.0 0.0 0.00 0.00 0.00 99 1009.4
20260509095158 59 132 0.0 0.0 0.00 0.00 0.00 99 1009.6
20260509094655 59 130 0.0 2.0 0.00 0.00 0.00 99 1009.2
20260509094152 59 217 0.0 2.0 0.00 0.00 0.00 98 1009.4
20260509093651 59 130 2.0 2.0 0.00 0.00 0.00 98 1009.1
20260509093147 59 142 0.0 0.0 0.00 0.00 0.00 98 1009.1
20260509092645 59 141 0.0 2.0 0.00 0.00 0.00 98 1008.9
20260509092143 59 162 0.0 0.0 0.00 0.00 0.00 98 1008.8
20260509091641 59 149 0.0 0.0 0.00 0.00 0.00 98 1008.8
20260509091137 59 144 0.0 3.0 0.00 0.00 0.00 97 1008.9
20260509090635 60 113 0.0 2.0 0.00 0.00 0.00 97 1008.8
20260509090132 60 131 0.0 3.0 0.00 0.00 0.00 97 1008.7
20260509085629 60 142 0.0 0.0 0.00 0.00 0.00 97 1008.8
20260509085125 60 139 0.0 0.0 0.00 0.00 0.00 96 1009.0
20260509084623 60 208 2.0 2.0 0.00 0.00 0.00 96 1009.0
20260509084119 60 144 0.0 2.0 0.00 0.00 0.00 95 1008.9
20260509083617 61 186 0.0 2.0 0.00 0.00 0.00 94 1008.8
20260509083113 61 186 0.0 3.0 0.00 0.00 0.00 94 1009.0
20260509082611 61 240 0.0 2.0 0.00 0.00 0.00 93 1008.9
20260509082107 62 306 0.0 2.0 0.00 0.00 0.00 92 1009.1
20260509081605 62 199 0.0 2.0 0.00 0.00 0.00 91 1009.2
20260509081101 62 191 0.0 2.0 0.00 0.00 0.00 91 1009.0
20260509080600 62 193 0.0 3.0 0.00 0.00 0.00 91 1009.2
20260509080057 62 205 0.0 2.0 0.00 0.00 0.00 90 1009.3
20260509075555 62 147 0.0 5.0 0.00 0.00 0.00 89 1009.5
20260509075053 62 217 0.0 5.0 0.00 0.00 0.00 88 1009.2
20260509074549 62 32 0.0 5.0 0.00 0.00 0.00 88 1009.4
20260509074046 62 180 3.0 6.0 0.00 0.00 0.00 88 1009.5
20260509073542 62 210 3.0 7.0 0.00 0.00 0.00 89 1009.2
20260509073039 62 211 0.0 5.0 0.00 0.00 0.00 89 1009.5
20260509072535 62 180 2.0 6.0 0.00 0.00 0.00 89 1009.7
20260509072032 62 232 5.0 11.0 0.00 0.00 0.00 89 1009.6
20260509071529 62 229 4.0 7.0 0.00 0.00 0.00 90 1009.8
20260509071026 62 202 0.0 11.0 0.00 0.00 0.00 90 1009.8
20260509070524 62 207 0.0 7.0 0.00 0.00 0.00 92 1009.6
20260509070020 62 222 3.0 4.0 0.00 0.00 0.00 93 1009.7
20260509065515 61 256 0.0 3.0 0.00 0.00 0.00 93 1009.8
20260509065012 61 196 3.0 4.0 0.00 0.00 0.00 94 1009.8
20260509064509 61 269 0.0 5.0 0.00 0.00 0.00 95 1009.9
20260509064007 61 260 0.0 4.0 0.00 0.00 0.00 95 1009.9
20260509063502 61 298 0.0 4.0 0.00 0.00 0.00 95 1009.9
20260509063000 61 230 0.0 0.0 0.00 0.00 0.00 95 1010.2
20260509062457 61 129 0.0 5.0 0.00 0.00 0.00 94 1010.4
20260509061955 61 245 2.0 5.0 0.00 0.00 0.00 95 1010.2
20260509061451 61 247 4.0 7.0 0.00 0.00 0.00 95 1010.1
20260509060949 61 158 0.0 5.0 0.00 0.00 0.00 95 1010.0
20260509060446 62 233 0.0 3.0 0.00 0.00 0.00 94 1009.9
20260509055942 62 223 0.0 9.0 0.00 0.00 0.00 94 1010.2
20260509055437 62 262 2.0 9.0 0.00 0.00 0.00 93 1010.2
20260509054934 62 207 10.0 10.0 0.00 0.00 0.00 94 1010.1
20260509054430 62 187 2.0 6.0 0.00 0.00 0.00 94 1010.5
20260509053929 62 275 0.0 9.0 0.00 0.00 0.00 94 1010.2
20260509053426 62 202 5.0 6.0 0.00 0.00 0.00 94 1009.9
20260509052923 62 228 7.0 8.0 0.00 0.00 0.00 94 1009.6
20260509052421 62 59 3.0 12.0 0.00 0.00 0.00 94 1009.9
20260509051919 62 134 0.0 7.0 0.00 0.00 0.00 94 1009.8
20260509051416 62 112 4.0 8.0 0.00 0.00 0.00 94 1009.9
20260509050913 62 168 0.0 9.0 0.00 0.00 0.00 94 1011.0
20260509050410 62 230 3.0 5.0 0.00 0.00 0.00 94 1011.0
20260509045907 62 207 0.0 5.0 0.00 0.34 0.34 94 1011.1
20260509045403 62 191 10.0 11.0 0.00 0.34 0.34 94 1011.0
20260509044901 62 173 6.0 9.0 0.00 0.34 0.34 94 1011.1
20260509044358 62 106 4.0 9.0 0.00 0.34 0.34 94 1010.9
20260509043855 62 185 0.0 19.0 0.00 0.34 0.34 92 1011.1
20260509043351 63 105 14.0 19.0 0.00 0.34 0.34 91 1010.9
20260509042847 63 75 14.0 20.0 0.00 0.34 0.34 93 1010.9
20260509042343 63 158 4.0 15.0 0.00 0.34 0.34 94 1010.8
20260509041840 63 122 9.0 21.0 0.00 0.34 0.34 94 1010.4
20260509041337 63 109 12.0 16.0 0.00 0.34 0.34 96 1010.7
20260509040835 63 138 6.0 11.0 0.07 0.34 0.34 96 1010.6
20260509040333 63 171 4.0 15.0 0.07 0.34 0.34 95 1011.1
20260509035829 63 114 8.0 11.0 0.07 0.33 0.33 95 1011.3
20260509035327 63 99 5.0 10.0 0.14 0.32 0.32 96 1011.4
20260509034822 64 193 12.0 18.0 0.21 0.32 0.32 95 1011.6
20260509034321 64 220 6.0 8.0 0.26 0.29 0.29 95 1011.4
20260509033817 64 18 5.0 10.0 0.94 0.27 0.27 93 1010.8
20260509033315 65 322 0.0 3.0 1.37 0.23 0.23 91 1011.8
20260509032811 67 342 0.0 9.0 0.47 0.08 0.08 85 1012.4
20260509032308 71 296 4.0 5.0 0.00 0.00 0.00 76 1011.9
20260509031806 73 75 0.0 6.0 0.00 0.00 0.00 65 1010.8
20260509031303 73 188 3.0 9.0 0.00 0.00 0.00 71 1010.1
20260509030801 73 84 9.0 10.0 0.00 0.00 0.00 72 1009.6
20260509030259 73 91 12.0 24.0 0.00 0.00 0.00 73 1009.9
20260509025755 73 222 0.0 7.0 0.00 0.00 0.00 73 1009.8
20260509025250 73 49 0.0 9.0 0.00 0.00 0.00 74 1009.3
20260509024746 72 96 4.0 4.0 0.00 0.00 0.00 78 1009.3
20260509024242 72 119 0.0 5.0 0.00 0.00 0.00 78 1008.9
20260509023740 72 72 3.0 9.0 0.00 0.00 0.00 78 1008.3
20260509023237 73 70 9.0 9.0 0.00 0.00 0.00 77 1007.6
20260509022733 73 60 9.0 12.0 0.00 0.00 0.00 77 1007.5
20260509022231 73 103 0.0 7.0 0.00 0.00 0.00 76 1007.4
20260509021728 74 101 7.0 11.0 0.00 0.00 0.00 75 1007.0
20260509021225 74 132 13.0 14.0 0.00 0.00 0.00 75 1006.7
20260509020723 74 137 7.0 10.0 0.00 0.00 0.00 74 1006.7
20260509020219 74 112 7.0 10.0 0.00 0.00 0.00 73 1006.5
20260509015718 74 116 7.0 11.0 0.00 0.00 0.00 73 1006.7
20260509015216 75 91 6.0 9.0 0.00 0.00 0.00 73 1006.4
20260509014712 75 67 5.0 9.0 0.00 0.00 0.00 72 1006.3
20260509014209 75 105 5.0 10.0 0.00 0.00 0.00 71 1006.4
20260509013705 75 109 5.0 13.0 0.00 0.00 0.00 71 1006.2
20260509013201 76 159 8.0 12.0 0.00 0.00 0.00 70 1006.0
20260509012658 76 178 5.0 17.0 0.00 0.00 0.00 70 1006.1
20260509012154 77 114 8.0 16.0 0.00 0.00 0.00 69 1005.9
20260509011652 77 145 5.0 14.0 0.00 0.00 0.00 69 1005.9
20260509011149 77 184 5.0 11.0 0.00 0.00 0.00 68 1005.8
20260509010647 77 160 6.0 14.0 0.00 0.00 0.00 68 1005.5
20260509010143 78 148 5.0 14.0 0.00 0.00 0.00 68 1005.3
20260509005641 78 168 6.0 11.0 0.00 0.00 0.00 68 1005.6
20260509005137 78 104 4.0 15.0 0.00 0.00 0.00 67 1005.6
20260509004633 79 111 8.0 22.0 0.00 0.00 0.00 66 1005.8
20260509004130 79 215 2.0 18.0 0.00 0.00 0.00 65 1005.7
20260509003629 80 152 5.0 13.0 0.00 0.00 0.00 64 1005.7
20260509003126 80 115 15.0 18.0 0.00 0.00 0.00 63 1005.9
20260509002623 80 122 6.0 21.0 0.00 0.00 0.00 63 1006.0
20260509002120 80 109 6.0 19.0 0.00 0.00 0.00 63 1005.9
20260509001618 81 110 4.0 13.0 0.00 0.00 0.00 62 1006.0
20260509001113 81 113 20.0 21.0 0.00 0.00 0.00 61 1006.1
20260509000612 81 112 10.0 14.0 0.00 0.00 0.00 61 1006.1
20260509000108 81 88 8.0 17.0 0.00 0.00 0.00 61 1006.1
20260508235606 81 163 5.0 23.0 0.00 0.00 0.00 61 1005.8
20260508235102 81 98 2.0 21.0 0.00 0.00 0.00 61 1005.8
20260508234600 81 136 4.0 18.0 0.00 0.00 0.00 61 1005.8
20260508234056 82 102 7.0 20.0 0.00 0.00 0.00 60 1006.0
20260508233555 82 160 5.0 18.0 0.00 0.00 0.00 59 1005.9
20260508233052 82 91 7.0 22.0 0.00 0.00 0.00 59 1005.9
20260508232549 82 154 6.0 16.0 0.00 0.00 0.00 58 1006.1
20260508232046 82 98 6.0 17.0 0.00 0.00 0.00 59 1006.1
20260508231544 82 102 12.0 18.0 0.00 0.00 0.00 58 1005.9
20260508231041 82 98 11.0 17.0 0.00 0.00 0.00 58 1005.9
20260508230537 82 111 9.0 20.0 0.00 0.00 0.00 58 1006.2
20260508230034 82 130 9.0 11.0 0.00 0.00 0.00 58 1006.2
20260508225531 82 162 7.0 13.0 0.00 0.00 0.00 58 1006.2
20260508225028 82 84 9.0 19.0 0.00 0.00 0.00 58 1006.0
20260508224526 82 66 18.0 20.0 0.00 0.00 0.00 58 1006.1